• Join FlightAware (Why Join?)
  • Login
  • US Flag GB Flag 
11:31 EDT


 

Airport Tracker/Info


-or-


 

Live Flight TrackerFlight Track Log ✈ USC105 ✈ 10-Apr-2013 ✈ KBKL - KYIP

Flight Track Log - Related Links

Times and Time Zones

All times are in EDT time to prevent confusion due to time zone crossing. See the USC105 flight status page for this flight to view local times or setup timezone preferences in your user account.

Time Position Orientation Groundspeed Altitude Reporting Facility
EDT Latitude Longitude Course Direction KTS MPH feet Rate Location/Type
22:57 41.5417 -81.7039 314° West 127 146 2,100  Level Cleveland Center
22:58 41.5581 -81.7458 298° West 160 184 2,600 480 Climbing Cleveland Center
22:59 41.5742 -81.7989 292° West 159 183 3,100 540 Climbing Cleveland Center
23:00 41.5964 -81.8575 297° West 158 182 3,700 540 Climbing Cleveland Center
23:01 41.6189 -81.9053 302° West 156 180 4,200 480 Climbing Cleveland Center
23:02 41.6392 -81.9556 298° West 146 168 4,700 540 Climbing Cleveland Center
23:03 41.6572 -82.0033 297° West 148 170 5,300 420 Climbing Cleveland Center
23:04 41.6775 -82.0567 297° West 148 170 5,700 300 Climbing Cleveland Center
23:05 41.6892 -82.1097 286° West 145 167 6,000 120 Climbing Cleveland Center
23:06 41.7072 -82.1603 296° West 153 176 6,000  Level Cleveland Center
23:07 41.7214 -82.1939 299° West 151 174 6,000 60 Level Cleveland Center
23:08 41.7314 -82.2275 292° West 152 175 6,100  Climbing Cleveland Center
23:09 41.7492 -82.2836 293° West 158 182 6,000 -60 Descending Cleveland Center
23:10 41.7631 -82.3425 288° West 159 183 6,000  Level Cleveland Center
23:11 41.7828 -82.4044 293° West 156 180 6,000  Level Cleveland Center
23:12 41.7947 -82.4436 292° West 155 178 6,000  Level Cleveland Center
23:13 41.8086 -82.4942 290° West 153 176 6,000  Level Cleveland Center
23:14 41.8242 -82.5503 290° West 161 185 6,000  Level Cleveland Center
23:15 41.8419 -82.6067 293° West 168 193 6,000  Level Cleveland Center
23:16 41.8661 -82.6547 304° West 173 199 6,000  Level Cleveland Center
23:17 41.9114 -82.6953 326° Northwest 171 197 6,000  Level Cleveland Center
23:18 41.9417 -82.7494 307° West 170 196 6,100  Climbing Cleveland Center
23:19 41.9719 -82.7950 312° West 171 197 6,000 -60 Descending Cleveland Center
23:20 42.0144 -82.8664 309° West 175 201 6,000  Level Cleveland Center
23:21 42.0242 -82.8975 293° West 174 200 6,000  Level Cleveland Center
23:22 42.0536 -82.9881 294° West 171 197 6,000 -60 Level Cleveland Center
23:23 42.0675 -83.0222 299° West 171 197 5,900 -60 Descending Cleveland Center
23:24 42.0889 -83.0931 292° West 173 199 5,900  Level Cleveland Center
23:25 42.1086 -83.1442 297° West 175 201 5,900  Level Cleveland Center
23:26 42.1261 -83.2008 293° West 176 203 5,900 -60 Level Cleveland Center
23:27 42.1456 -83.2633 293° West 177 204 5,800 -360 Descending Cleveland Center
23:28 42.1522 -83.3253 278° West 188 216 5,300 -480 Descending Cleveland Center
23:29 42.1567 -83.4039 274° West 181 208 4,900 -360 Descending Cleveland Center
23:30 42.1511 -83.4653 263° West 185 213 4,600 -540 Descending Cleveland Center
23:31 42.1450 -83.5350 263° West 205 236 3,900 -720 Descending Cleveland Center
23:32 42.1267 -83.6042 250° West 210 242 3,200 -660 Descending Cleveland Center
23:33 42.1042 -83.6647 243° Southwest 214 246 2,600 -420 Descending Cleveland Center
23:34 42.1500 -83.6642 North 151 174 2,400 -120 Descending Cleveland Center
23:35 42.1761 -83.6178 53° Northeast 139 160 2,400 -360 Level Cleveland Center
23:36 42.2000 -83.5853 45° Northeast 115 132 1,700 -660 Descending Cleveland Center
23:37 42.2217 -83.5525 48° Northeast 113 130 1,100 -600 Descending Cleveland Center
23:39 42.2333 -83.5167 336° Northwest  Level FlightAware Approximate
23:46 42.2393 -83.5310 336° Northwest  Level Estimated